ATLAS 5 CENTAUR DEB, 43971

Orbit data source: Space-Track

ATLAS 5 CENTAUR DEB, 43971 is space debris in HEO originally from a launch on Wed, 17 Sep 2014 UTC launched from the Air Force Eastern Test Range (AFETR). Debris objects in space refer to the collection of defunct objects orbiting the Earth. Examples of debris include non-operational satellites, rocket bodies, and fragments generated from explosions, collisions, or faulty payload assembly.

Loading next visibility...
Identifier
43971, 2014-055AA
Orbit
HEO
Last TLE update
8 months ago
Origin
Flag of USUnited Launch Alliance/Lockheed Martin (US)
Manufacturer
Unknown
Mission
Spacecraft
Bus & Motor
Unknown
Mass
Unknown
Launch date (UTC)
2014-09-17 (11 years ago)
Launch vehicle
Unknown
Launch site
Air Force Eastern Test Range (AFETR)
Object type
Payload
Rocket body
Debris
Shape & HBR
Unknown
Radar Cross Section
Small (<0.1 m²)

Expand to show TLE details & history

TLE from 8 months ago
0 ATLAS 5 CENTAUR DEB
1 43971U 14055AA  24304.41942266 -.00000061  00000-0  00000+0 0  9993
2 43971  19.8828 213.9990 4721697  46.4486 344.1621  1.85585364 41723
Epoch: 2024-10-30T10:03Z
TLE epoch observation values (Epoch: 2024-10-30T10:03:58.117Z)
Latitude
-0.00004°
Longitude
23.83942°
Altitude
10,012.899 km
Speed
5.864 km/s
True Right ascension
14h 16m 11s
True Declination
0° 00' 00"
Sunlit
Object was in daylight at epoch
Visualization orbit readout
Latitude
-11.62289°
Longitude
-142.61894°
Altitude
25,565.178 km
Speed
3.272 km/s
Apparent Right ascension
03h 37m 43s
Apparent Declination
-20° 37' 43"
Sunlit
Object is in daylight
Visualization observer readout
Local Sidereal Time
00:19:35
Azimuth
132.828° SE
Elevation
13.875°
Doppler factor
1
Orbital elements
Apogee altitude
34,802.557 km
Perigee altitude
8,386.749 km
Semi-major axis
27,972.79 km
Eccentricity
0.47217
Inclination
19.8828°
RAAN
213.999°
Arg. of periapsis
46.4486°
True anomaly
Unknown
Mean anomaly
344.1621°
Eccentric anomaly
Unknown
Mean motion
0.46392 °/min
Orbital period
776 mins
BSTAR
0
Loading maneuver chart data...
Loading SW <> Apogee altitude chart data...
Loading historical data...
Loading historical data...
Loading historical data...
Loading historical data...
Loading historical data...
Loading historical data...
Loading historical data...

ATLAS 5 CENTAUR DEB Visibility forecast

Observer location: undefined°, undefined°

Span
Click to sort rows by Start time (UTC) header in descending order
Start Az.
Max El. time (UTC)
Max El. Az.
Max El.
End time (UTC)
End Az.
521 mins2025-06-16 13:39:45.269Z132.844° SE2025-06-16 20:49:45.269Z142.444° SSE15.686°2025-06-16 22:20:45.269Z118.283° SE
51 mins2025-06-17 12:48:45.269Z264.982° W2025-06-17 13:37:45.269Z202.588° SW32.794°2025-06-17 13:39:45.269Z200.454° SSW
|